TimeEST,TemperatureF,Dew PointF,Humidity,Sea Level PressureIn,VisibilityMPH,Wind Direction,Wind SpeedMPH,Gust SpeedMPH,PrecipitationIn,Events,Conditions,WindDirDegrees,DateUTC
12:54 AM,27.0,21.9,81,30.29,10.0,Calm,Calm,-,N/A,,Clear,0,2012-12-07 05:54:00
1:54 AM,27.0,21.9,81,30.28,10.0,Calm,Calm,-,N/A,,Clear,0,2012-12-07 06:54:00
2:54 AM,27.0,23.0,85,30.27,10.0,NE,3.5,-,N/A,,Clear,40,2012-12-07 07:54:00
3:54 AM,28.0,24.1,85,30.25,10.0,NE,4.6,-,N/A,,Clear,40,2012-12-07 08:54:00
4:30 AM,28.4,26.6,93,30.23,10.0,NE,3.5,-,N/A,,Mostly Cloudy,40,2012-12-07 09:30:00
4:54 AM,30.0,25.0,82,30.24,10.0,NNE,3.5,-,N/A,,Mostly Cloudy,30,2012-12-07 09:54:00
5:31 AM,30.2,26.6,86,30.22,10.0,Calm,Calm,-,N/A,,Overcast,0,2012-12-07 10:31:00
5:39 AM,30.2,26.6,86,30.22,10.0,Calm,Calm,-,N/A,,Overcast,0,2012-12-07 10:39:00
5:54 AM,32.0,27.0,82,30.22,10.0,Calm,Calm,-,N/A,,Overcast,0,2012-12-07 10:54:00
6:54 AM,33.1,28.9,85,30.23,10.0,Calm,Calm,-,N/A,,Overcast,0,2012-12-07 11:54:00
7:28 AM,33.8,28.4,81,30.23,10.0,Calm,Calm,-,N/A,,Overcast,0,2012-12-07 12:28:00
7:54 AM,34.0,28.9,82,30.22,10.0,Calm,Calm,-,N/A,,Overcast,0,2012-12-07 12:54:00
8:15 AM,35.6,30.2,81,30.21,10.0,ENE,3.5,-,N/A,,Overcast,60,2012-12-07 13:15:00
8:34 AM,35.6,30.2,81,30.22,10.0,East,3.5,-,N/A,,Overcast,90,2012-12-07 13:34:00
8:42 AM,35.6,30.2,81,30.21,10.0,Calm,Calm,-,N/A,,Overcast,0,2012-12-07 13:42:00
8:54 AM,37.0,30.9,79,30.22,10.0,Calm,Calm,-,0.00,Rain,Light Rain,0,2012-12-07 13:54:00
9:54 AM,37.9,32.0,79,30.22,9.0,Calm,Calm,-,0.00,Rain,Light Rain,0,2012-12-07 14:54:00
10:54 AM,37.9,34.0,86,30.20,7.0,Calm,Calm,-,0.02,Rain,Light Rain,0,2012-12-07 15:54:00
11:54 AM,39.0,36.0,89,30.17,6.0,Calm,Calm,-,0.02,Rain,Light Rain,0,2012-12-07 16:54:00
12:54 PM,39.9,37.9,93,30.14,5.0,Calm,Calm,-,0.03,Rain,Light Rain,0,2012-12-07 17:54:00
1:03 PM,39.2,37.4,93,30.13,7.0,Calm,Calm,-,0.00,,Overcast,0,2012-12-07 18:03:00
1:18 PM,39.2,37.4,93,30.13,6.0,Calm,Calm,-,0.00,Rain,Light Rain,0,2012-12-07 18:18:00
1:54 PM,41.0,39.0,93,30.12,6.0,Calm,Calm,-,0.00,,Overcast,0,2012-12-07 18:54:00
2:18 PM,41.0,39.2,93,30.11,5.0,Calm,Calm,-,N/A,,Overcast,0,2012-12-07 19:18:00
2:54 PM,42.1,39.9,92,30.11,6.0,Calm,Calm,-,N/A,,Overcast,0,2012-12-07 19:54:00
3:43 PM,42.8,39.2,87,30.10,5.0,East,3.5,-,N/A,,Overcast,80,2012-12-07 20:43:00
3:54 PM,42.1,39.9,92,30.10,4.0,East,4.6,-,N/A,,Overcast,90,2012-12-07 20:54:00
4:31 PM,42.8,39.2,87,30.10,5.0,Calm,Calm,-,N/A,,Overcast,0,2012-12-07 21:31:00
4:54 PM,42.1,39.9,92,30.10,5.0,Calm,Calm,-,N/A,,Overcast,0,2012-12-07 21:54:00
5:42 PM,42.8,41.0,93,30.10,4.0,Calm,Calm,-,N/A,,Overcast,0,2012-12-07 22:42:00
5:54 PM,42.1,41.0,96,30.10,4.0,Calm,Calm,-,N/A,,Overcast,0,2012-12-07 22:54:00
6:26 PM,42.8,41.0,93,30.09,4.0,NE,3.5,-,N/A,,Overcast,50,2012-12-07 23:26:00
6:54 PM,43.0,41.0,93,30.09,4.0,Calm,Calm,-,N/A,,Overcast,0,2012-12-07 23:54:00
7:10 PM,42.8,41.0,93,30.09,4.0,Calm,Calm,-,N/A,,Overcast,0,2012-12-08 00:10:00
7:54 PM,43.0,42.1,97,30.09,4.0,Calm,Calm,-,0.00,,Overcast,0,2012-12-08 00:54:00
8:54 PM,44.1,42.1,93,30.08,4.0,North,3.5,-,N/A,,Overcast,10,2012-12-08 01:54:00
9:54 PM,43.0,41.0,93,30.06,3.0,ENE,3.5,-,0.00,Rain,Light Rain,60,2012-12-08 02:54:00
9:58 PM,42.8,41.0,93,30.06,2.5,NE,3.5,-,0.01,Rain,Light Rain,40,2012-12-08 02:58:00
10:35 PM,42.8,41.0,93,30.05,3.0,NE,4.6,-,0.04,Rain,Light Rain,50,2012-12-08 03:35:00
10:49 PM,42.8,41.0,93,30.04,2.5,NE,4.6,-,0.04,Rain,Light Rain,40,2012-12-08 03:49:00
10:54 PM,42.1,41.0,96,30.05,3.0,NE,4.6,-,0.04,Rain,Light Rain,40,2012-12-08 03:54:00
11:22 PM,42.8,41.0,93,30.03,2.0,NE,3.5,-,0.02,Rain,Rain,50,2012-12-08 04:22:00
11:54 PM,43.0,41.0,93,30.04,2.0,NNE,3.5,-,0.06,Rain,Light Rain,20,2012-12-08 04:54:00